Platteville, WI

8:54 PM CDT on October 18, 2019 (GMT -0500)
Platteville Municipal

Weather History for KPVB - September, 2019

Change the Weather History Date:

Saturday, September 21, 2019

  Actual Average (KDBQ) Record (KDBQ)
Temperature  
Mean Temperature 71 °F -  
Max Temperature 73 °F 67 °F 94 °F (1891)
Min Temperature 69 °F 47 °F 35 °F (1952)
Cooling Degree Days 6    
Growing Degree Days 21 (Base 50)    
Moisture  
Dew Point 72 °F    
Average Humidity 100    
Maximum Humidity 100    
Minimum Humidity 99    
Precipitation  
Precipitation 0.03 in - - ()
Sea Level Pressure  
Sea Level Pressure 29.99 in    
Wind  
Wind Speed 10 mph ()    
Max Wind Speed 17 mph    
Max Gust Speed 23 mph    
Visibility 7.4 miles    
Events      
Averages and records for this station are not official NWS values.
T = Trace of Precipitation, MM = Missing Value Source: Averaged Metar Reports

Daily Weather History Graph

Daily Weather History Graph

Search for Another Location

Airport or City:

Astronomy

Sep. 21, 2019 Rise Set
Actual Time 6:47 AM CDT 7:01 PM CDT
Civil Twilight 6:19 AM CDT 7:29 PM CDT
Nautical Twilight 5:46 AM CDT 8:02 PM CDT
Astronomical Twilight 5:12 AM CDT 8:36 PM CDT
Moon 11:30 PM CDT (9/21) 2:02 PM CDT (9/21)
Length of Visible Light 13h 09m
Length of Day
12h 13m
Waning Gibbous, 54% of the Moon is Illuminated
Sep 21
Waning Gibbous
Sep 21
Last Quarter
Sep 28
New
Oct 5
First Quarter
Oct 13
Full

Hourly Weather History & Observations

Time (CDT) Temp. Dew Point Humidity Pressure Visibility Wind Dir Wind Speed Gust Speed Precip Events Conditions
12:15 AM 71.6 °F 71.4 °F 99% 30.04 in 10.0 mi SE 6.9 mph - N/A   Clear
12:35 AM 71.2 °F 71.2 °F 100% 30.04 in 10.0 mi ESE 6.9 mph - N/A   Clear
12:55 AM 70.9 °F 70.9 °F 100% 30.03 in 10.0 mi SE 8.1 mph - N/A   Clear
1:15 AM 70.9 °F 70.9 °F 100% 30.03 in 7.0 mi SE 8.1 mph - N/A   Clear
1:55 AM 71.2 °F 71.2 °F 100% 30.03 in 7.0 mi SE 6.9 mph - N/A   Mostly Cloudy
2:15 AM 70.9 °F 70.9 °F 100% 30.03 in 10.0 mi SE 6.9 mph - N/A   Scattered Clouds
2:55 AM 70.2 °F 70.2 °F 100% 30.03 in 7.0 mi SE 6.9 mph - N/A   Mostly Cloudy
3:15 AM 69.8 °F 69.8 °F 100% 30.02 in 7.0 mi SSE 5.8 mph - N/A   Scattered Clouds
3:35 AM 70.0 °F 70.0 °F 100% 30.02 in 7.0 mi SSE 8.1 mph - N/A   Mostly Cloudy
3:55 AM 70.2 °F 70.2 °F 100% 30.02 in 7.0 mi SE 6.9 mph - N/A   Scattered Clouds
4:15 AM 69.8 °F 69.8 °F 100% 30.02 in 7.0 mi SSE 5.8 mph - N/A   Scattered Clouds
4:35 AM 70.5 °F 70.5 °F 100% 30.02 in 7.0 mi SSE 11.5 mph - N/A   Scattered Clouds
4:55 AM 70.9 °F 70.9 °F 100% 30.02 in 7.0 mi South 11.5 mph - N/A   Scattered Clouds
5:15 AM 70.7 °F 70.7 °F 100% 30.02 in 10.0 mi South 11.5 mph - N/A   Mostly Cloudy
5:35 AM 70.9 °F 70.9 °F 100% 30.02 in 10.0 mi South 11.5 mph 17.3 mph N/A   Mostly Cloudy
5:55 AM 70.7 °F 70.7 °F 100% 30.01 in 7.0 mi South 10.4 mph - N/A   Overcast
6:15 AM 70.3 °F 70.3 °F 100% 30.02 in 10.0 mi SSE 9.2 mph - N/A   Overcast
6:35 AM 70.3 °F 70.3 °F 100% 30.01 in 10.0 mi SSE 11.5 mph - N/A   Overcast
6:55 AM 70.2 °F 70.2 °F 100% 30.01 in 10.0 mi South 11.5 mph - N/A   Overcast
7:15 AM 70.5 °F 70.5 °F 100% 30.01 in 7.0 mi South 13.8 mph - N/A   Overcast
7:35 AM 70.7 °F 70.7 °F 100% 30.01 in 7.0 mi South 13.8 mph 19.6 mph N/A   Overcast
7:55 AM 70.9 °F 70.9 °F 100% 30.01 in 10.0 mi South 12.7 mph 18.4 mph N/A   Overcast
8:15 AM 70.9 °F 70.9 °F 100% 30.00 in 7.0 mi South 15.0 mph 21.9 mph N/A   Overcast
8:35 AM 71.6 °F 71.6 °F 100% 30.01 in 7.0 mi South 15.0 mph 20.7 mph N/A   Overcast
8:55 AM 72.5 °F 72.3 °F 99% 30.01 in 7.0 mi South 15.0 mph - N/A   Overcast
9:15 AM 72.0 °F 72.0 °F 100% 30.01 in 7.0 mi South 12.7 mph 21.9 mph N/A   Overcast
9:55 AM 71.6 °F 71.6 °F 100% 30.01 in 5.0 mi South 15.0 mph 18.4 mph N/A   Overcast
10:15 AM 70.7 °F 70.7 °F 100% 30.00 in 7.0 mi South 11.5 mph - N/A   Overcast
10:35 AM 71.4 °F 71.4 °F 100% 30.00 in 7.0 mi SSE 12.7 mph 16.1 mph N/A   Overcast
10:55 AM 71.4 °F 71.4 °F 100% 30.01 in 7.0 mi South 15.0 mph 20.7 mph N/A   Overcast
11:15 AM 71.2 °F 71.2 °F 100% 30.01 in 4.0 mi South 15.0 mph 20.7 mph N/A   Overcast
11:35 AM 71.1 °F 71.1 °F 100% 30.00 in 5.0 mi South 13.8 mph - N/A   Overcast
11:55 AM 71.1 °F 71.1 °F 100% 30.00 in 2.5 mi South 13.8 mph 20.7 mph 0.01 in   Overcast
12:15 PM 71.6 °F 71.6 °F 100% 29.99 in 5.0 mi South 13.8 mph 19.6 mph N/A   Overcast
12:35 PM 71.6 °F 71.6 °F 100% 29.99 in 7.0 mi South 11.5 mph 17.3 mph N/A   Overcast
12:55 PM 71.6 °F 71.6 °F 100% 29.99 in 7.0 mi South 15.0 mph - N/A   Overcast
1:35 PM 72.3 °F 72.3 °F 100% 29.97 in 7.0 mi South 15.0 mph - N/A   Overcast
1:55 PM 71.8 °F 71.8 °F 100% 29.97 in 7.0 mi South 11.5 mph 18.4 mph 0.02 in   Overcast
2:15 PM 72.3 °F 72.3 °F 100% 29.96 in 10.0 mi South 12.7 mph - N/A   Overcast
2:35 PM 72.1 °F 72.1 °F 100% 29.96 in 10.0 mi South 15.0 mph - N/A   Overcast
2:55 PM 72.5 °F 72.5 °F 100% 29.97 in 10.0 mi South 13.8 mph - N/A   Overcast
3:15 PM 72.1 °F 72.1 °F 100% 29.97 in 7.0 mi South 11.5 mph - N/A   Overcast
3:35 PM 72.3 °F 72.3 °F 100% 29.96 in 7.0 mi South 12.7 mph - N/A   Overcast
3:55 PM 72.9 °F 72.9 °F 100% 29.95 in 7.0 mi South 13.8 mph - N/A   Overcast
4:15 PM 73.0 °F 73.0 °F 100% 29.95 in 7.0 mi South 10.4 mph - N/A   Overcast
4:35 PM 72.9 °F 72.9 °F 100% 29.95 in 7.0 mi South 11.5 mph - N/A   Overcast
4:55 PM 72.9 °F 72.9 °F 100% 29.95 in 10.0 mi SSW 9.2 mph - N/A   Overcast
5:35 PM 72.9 °F 72.9 °F 100% 29.95 in 7.0 mi South 9.2 mph - N/A   Overcast
6:15 PM 72.9 °F 72.9 °F 100% 29.94 in 7.0 mi South 11.5 mph - N/A   Overcast
6:35 PM 73.0 °F 73.0 °F 100% 29.95 in 7.0 mi South 12.7 mph 19.6 mph N/A   Overcast
6:55 PM 73.0 °F 73.0 °F 100% 29.94 in 7.0 mi South 9.2 mph - N/A   Overcast
7:35 PM 72.9 °F 72.9 °F 100% 29.95 in 7.0 mi South 10.4 mph - N/A   Overcast
7:55 PM 72.7 °F 72.7 °F 100% 29.95 in 7.0 mi South 9.2 mph - N/A   Overcast
8:15 PM 72.7 °F 72.7 °F 100% 29.95 in 7.0 mi South 11.5 mph 16.1 mph N/A   Overcast
8:35 PM 72.7 °F 72.7 °F 100% 29.95 in 7.0 mi South 10.4 mph - N/A   Overcast
8:55 PM 72.7 °F 72.7 °F 100% 29.95 in 7.0 mi South 9.2 mph - N/A   Overcast
9:15 PM 72.5 °F 72.5 °F 100% 29.95 in 7.0 mi South 9.2 mph - N/A   Overcast
9:35 PM 72.5 °F 72.5 °F 100% 29.96 in 7.0 mi South 11.5 mph - N/A   Overcast
9:55 PM 72.5 °F 72.5 °F 100% 29.96 in 7.0 mi South 13.8 mph - N/A   Overcast
10:15 PM 72.7 °F 72.7 °F 100% 29.95 in 7.0 mi South 16.1 mph - N/A   Overcast
10:35 PM 72.3 °F 72.3 °F 100% 29.94 in 7.0 mi South 16.1 mph 23.0 mph N/A   Mostly Cloudy
10:55 PM 72.1 °F 72.1 °F 100% 29.95 in 7.0 mi South 13.8 mph 20.7 mph N/A   Overcast
11:15 PM 72.0 °F 72.0 °F 100% 29.95 in 7.0 mi South 12.7 mph 18.4 mph N/A   Overcast
11:35 PM 72.0 °F 72.0 °F 100% 29.93 in 7.0 mi South 16.1 mph 23.0 mph N/A   Overcast
11:55 PM 72.0 °F 72.0 °F 100% 29.93 in 7.0 mi South 17.3 mph 21.9 mph N/A   Overcast